Preview of NWS' New Version of Forecast
This preview is not operational and should not be used for support decisions.

Regional Weather Roundup (RWR)

Issued by National Weather Service (NWS)

                            
000
ASUS45 KBOU 181610
RWRCO 

WEATHER ROUNDUP FOR COLORADO
NATIONAL WEATHER SERVICE DENVER/BOULDER CO
900 AM MST MON FEB 18 2019

NOTE: "FAIR" INDICATES FEW OR NO CLOUDS BELOW 12000 FEET WITH NO
SIGNIFICANT WEATHER AND/OR OBSTRUCTIONS TO VISIBILITY.

COZ001>005-013-030-031-181700-
...NORTHWEST COLORADO...
  
CITY           SKY/WX    TMP DP  RH WIND       PRES   REMARKS
CRAIG          CLOUDY    12   7  80 CALM      29.92R                  
HAYDEN         PTSUNNY   10   5  80 W5        29.90R WCI   2          
MEEKER         CLOUDY    22  13  68 CALM      29.87R                  
RANGELY        CLOUDY    17   9  70 E15       29.95R WCI   2          
RABBIT EARS PA PTSUNNY    9   7  92 SW5       29.74R WCI   0          
STEAMBOAT SPGS CLOUDY    10   4  75 CALM      29.86S                  
WALDEN         PTSUNNY    0  -6  78 CALM      29.85S                  
$$

COZ006>008-011-181700-
...WEST CENTRAL VALLEYS...
  
CITY           SKY/WX    TMP DP  RH WIND       PRES   REMARKS
GRAND JUNCTION FAIR      26  24  92 E5        29.89S WCI  20          
MONTROSE       FAIR      24   9  52 E7        29.90S WCI  16          
EAGLE          FAIR      10   2  69 CALM      29.93R                  
RIFLE          FAIR      22  11  62 E5        29.91R WCI  16          
DELTA          FAIR      28  17  62 CALM      29.90S                  
NUCLA          CLOUDY    23  12  63 E6        29.89R WCI  16          
$$

COZ017>023-064>068-181700-
...SOUTHWEST COLORADO...
  
CITY           SKY/WX    TMP DP  RH WIND       PRES   REMARKS
DURANGO        HVY SNOW  20  19  96 E10       29.91R VSB 1/4 WCI   9  
CORTEZ         LGT SNOW  25  19  78 VRB3      29.87R VSB 3/4          
PAGOSA SPRINGS CLOUDY    20  17  88 CALM      29.91R                  
TELLURIDE      FAIR      18   0  45 S3        29.77S                  
WOLF CREEK PAS CLOUDY     3   1  92 S20       29.81R WCI -18          
$$

COZ009-010-012-014-032>034-037-058>063-181700-
...CENTRAL COLORADO...
  
CITY           SKY/WX    TMP DP  RH WIND       PRES   REMARKS
ASPEN          FAIR      12   1  61 CALM      29.81R                  
BUENA VISTA    LGT SNOW   3  -3  75 CALM      29.96S                  
COPPER MTN     FAIR       9  -6  52 S17       29.70R WCI -10          
BERTHOUD PASS  FAIR      -2 -13  60 SW21      29.69R WCI -25          
COTTONWOOD PAS FAIR       3   0  85 E3        29.84S FOG              
GUNNISON       FAIR      -7 -12  79 E3        29.90S                  
GRANBY         FAIR      -3  -8  79 CALM      29.86R                  
KREMMLING      FAIR       0  -6  78 CALM      29.91S                  
LEADVILLE      FAIR      -2  -4  91 S9        29.81S WCI -18          
MONARCH PASS     N/A      3   0  85 MISG      29.84S                  
SALIDA         CLOUDY    10   3  75 SE9       30.06S WCI  -4          
SUNLIGHT       FAIR       5   1  85 MISG      29.80R                  
WILKERSON PASS FAIR     N/A N/A N/A SW9       29.78R                  
$$

COZ069>075-181700-
...SAN LUIS VALLEY/SANGRE DE CRISTO MOUNTAINS...
  
CITY           SKY/WX    TMP DP  RH WIND       PRES   REMARKS
ALAMOSA        FAIR      17  13  84 CALM      29.90R                  
DEL NORTE      FAIR      13   6  73 W6        29.90R WCI   4          
LA VETA PASS   NOT AVBL                                               
SAGUACHE       LGT SNOW  18  12  79 CALM      29.90S                  
$$

COZ035-036-038>040-181700-
...NORTHERN COLORADO FRONT RANGE...
  
CITY           SKY/WX    TMP DP  RH WIND       PRES   REMARKS
DENVER INTL AP PTSUNNY   10   4  76 E14       30.10S WCI  -6          
AURORA         PTSUNNY   14   6  68 S13       30.08S WCI   0          
FRONT RANGE AP PTSUNNY   12   7  79 E12       30.12R WCI  -2          
ERIE MUNI ARPT LGT SNOW  10   3  74 E5        30.21F WCI   2          
BOULDER MUN AP LGT SNOW  10   5  79 NE5       30.14S WCI   2          
CENTENNIAL     PTSUNNY   10   6  84 W6        30.07R FOG     WCI   0  
BROOMFIELD     LGT SNOW   9   5  85 NE8       30.11R WCI  -4          
FORT COLLINS   LGT SNOW   8   4  83 SE12      30.17F FOG     WCI  -7  
LONGMONT       LGT SNOW  13   6  73 E5        30.18S WCI   5          
$$

COZ041-046-047-076>085-087-088-181700-
...PIKES PEAK/PALMER DIVIDE AND SOUTHERN FOOTHILLS...
  
CITY           SKY/WX    TMP DP  RH WIND       PRES   REMARKS
COLO. SPRINGS  FOG        6   3  87 SE16      30.08S VSB 1   WCI -12  
A. F. ACADEMY  HAZE       5   0  78 S13       30.05R VSB 1   WCI -12  
SCHRIEVER AFB  NOT AVBL                                               
CHEYENNE MTN   LGT SNOW   7   5  91 SE17G23   29.94S WCI -12          
ELLICOTT       NOT AVBL                                               
FALCON         CLOUDY     5   1  81 S9        30.04F FOG     WCI  -9  
FORT CARSON    CLOUDY     6   2  84 S15       30.10S WCI -12          
LIMON          CLOUDY     8   4  83 S9        30.16S FOG     WCI  -5  
MONUMENT HILL  FAIR       7   0  72 S14       30.01S WCI -10          
CANON CITY     LGT SNOW  14   9  79 E6        30.16R WCI   5          
WALSENBURG     NOT AVBL                                               
TRINIDAD       PTSUNNY   10   5  80 NE5       30.13S WCI   2          
$$

COZ042>045-048>051-090-091-181700-
...NORTHEAST COLORADO...
  
CITY           SKY/WX    TMP DP  RH WIND       PRES   REMARKS
GREELEY ARPT   FLURRIES   8   2  76 SE8       30.22R WCI  -4          
AKRON          LGT SNOW   4   0  83 E5        30.22S FOG     WCI  -5  
BURLINGTON     CLOUDY     9   2  73 VRB6      30.28R HAZE    WCI  -1  
WRAY           CLOUDY     9   1  72 N3        30.34S                  
YUMA           LGT SNOW   5   0  78 CALM      30.28S                  
STERLING       LGT SNOW   7   1  78 CALM      30.28S                  
HOLYOKE        CLOUDY     9   1  72 N8        30.33S WCI  -4          
FORT MORGAN      N/A      7  -4  61 E7        30.24S WCI  -5          
$$

COZ086-089-092>099-181700-
...SOUTHEAST COLORADO...
  
CITY           SKY/WX    TMP DP  RH WIND       PRES   REMARKS
PUEBLO         LGT SNOW  11   7  84 SE9       30.21S FOG     WCI  -2  
LA JUNTA       CLOUDY    10   6  84 E6        30.27S FOG     WCI   0  
LAMAR          LGT SNOW  11   5  77 E5        30.32R WCI   3          
SPRINGFIELD      N/A      9   5  84 N7        30.25S WCI  -2          
$$